Regional Weather Roundup
Issued by NWS

Home | Current Version | Previous Version | Graphics & Text | Print | Product List | Glossary On
Versions: 1 2 3 4 5 6 7 8 9 10 11 12 13 14 15 16 17 18 19 20 21 22 23 24 25 26 27
000
ASUS45 KBOU 230210
RWRCO

WEATHER ROUNDUP FOR COLORADO
NATIONAL WEATHER SERVICE DENVER/BOULDER CO
800 PM MDT TUE MAY 22 2018

NOTE: "FAIR" INDICATES FEW OR NO CLOUDS BELOW 12000 FEET WITH NO
SIGNIFICANT WEATHER AND/OR OBSTRUCTIONS TO VISIBILITY.

COZ001>005-013-030-031-230300-
...NORTHWEST COLORADO...

CITY           SKY/WX    TMP DP  RH WIND       PRES   REMARKS
CRAIG          FAIR      51  46  83 E6        30.07F
HAYDEN         FAIR      47  45  93 E8        30.10F
MEEKER         FAIR      53  43  68 E12       30.05R
RANGELY        FAIR      60  46  61 E10       29.99S
RABBIT EARS PA FOG       34  34 100 NW8G16    30.23F VSB<1/4 WCI  27
STEAMBOAT SPGS CLOUDY    47  46  96 CALM      30.12S
WALDEN         CLOUDY    46  43  87 SW7G20    30.16R
$$

COZ006>008-011-230300-
...WEST CENTRAL VALLEYS...

CITY           SKY/WX    TMP DP  RH WIND       PRES   REMARKS
GRAND JUNCTION FAIR      62  50  64 NE5       29.95S
MONTROSE       FAIR      56  44  64 SW6       30.01R
EAGLE          MOCLDY    61  39  44 W7        30.08R
RIFLE          FAIR      58  41  53 S3        30.02S
DELTA          MOCLDY    60  48  65 NW8       29.98S
NUCLA          MOCLDY    63  34  34 NW14G20   29.98R
$$

COZ017>023-064>068-230300-
...SOUTHWEST COLORADO...

CITY           SKY/WX    TMP DP  RH WIND       PRES   REMARKS
DURANGO        FAIR      68  23  18 W9        29.97R
CORTEZ         FAIR      67  29  24 S5        29.94R
PAGOSA SPRINGS FAIR      62  20  20 NW3       30.06S
TELLURIDE      FAIR      53  33  46 CALM      30.16R
WOLF CREEK PAS FAIR      41  23  48 SW14G22   30.35R
$$

COZ009-010-012-014-032>034-037-058>063-230300-
...CENTRAL COLORADO...

CITY           SKY/WX    TMP DP  RH WIND       PRES   REMARKS
ASPEN          FAIR      53  38  56 S8        30.10S
BUENA VISTA    FAIR      57  35  44 NW9       30.08R
COPPER MTN     FAIR      41  32  70 S10       30.33R
BERTHOUD PASS  FAIR      36  27  69 NW10G23   30.34R
COTTONWOOD PAS FAIR      55  34  44 NW5       30.19R
GUNNISON       CLOUDY    63  32  31 N7        30.06R
GRANBY         FAIR      49  41  74 S5        30.15R
KREMMLING      FAIR      54  45  71 E3        30.13R
LEADVILLE      FAIR      48  35  60 N7        30.19R
MONARCH PASS   FAIR      43  28  56 MISG      30.41R
SALIDA         FAIR      65  37  35 NW12G17   30.10R
SUNLIGHT       FAIR      36  36 100 SW8       30.28R
WILKERSON PASS DRIZZLE   43  32  65 W6        30.31R
$$

COZ069>075-230300-
...SAN LUIS VALLEY/SANGRE DE CRISTO MOUNTAINS...

CITY           SKY/WX    TMP DP  RH WIND       PRES   REMARKS
ALAMOSA        FAIR      61  37  41 S14       30.05R
DEL NORTE      FAIR      59  30  34 SW10      30.09R
LA VETA PASS   FAIR      52  30  43 S15G23    30.34R
SAGUACHE       NOT AVBL
$$

COZ035-036-038>040-230300-
...NORTHERN COLORADO FRONT RANGE...

CITY           SKY/WX    TMP DP  RH WIND       PRES   REMARKS
DENVER INTL AP MOCLDY    64  49  57 NW26G35   29.90R
AURORA         PTCLDY    64  49  59 NW16      29.93R
FRONT RANGE AP MOCLDY    66  50  55 W23G35    29.91R
ERIE MUNI ARPT FAIR      61  49  63 NW10G23   29.96S
BOULDER MUN AP FAIR      57  50  77 W6        29.92R
CENTENNIAL     FAIR      68  47  46 N21       29.94R
BROOMFIELD     MOCLDY    63  50  63 N20G25    29.92R
FORT COLLINS   TSTM      60  52  74 NW13      29.95R
LONGMONT       LGT RAIN  60  52  75 N9        29.92R
$$

COZ041-046-047-076>085-087-088-230300-
...PIKES PEAK/PALMER DIVIDE AND SOUTHERN FOOTHILLS...

CITY           SKY/WX    TMP DP  RH WIND       PRES   REMARKS
COLO. SPRINGS  MOCLDY    72  34  24 SE9       29.94R
A. F. ACADEMY  FAIR      69  33  27 SE9       29.95R
SCHRIEVER AFB  NOT AVBL
CHEYENNE MTN   MOCLDY    68  31  25 S5        29.94R
ELLICOTT         N/A    N/A N/A N/A SE23G29   29.95R
FALCON         FAIR      67  31  25 SE10      30.01R
FORT CARSON    MOCLDY    74  34  23 SE8       29.91R
LIMON          FAIR      69  40  34 SE24G33   29.92R
MONUMENT HILL  FAIR      61  34  36 SE7       30.02R
CANON CITY     FAIR      75  36  23 W7        29.87R
WALSENBURG     FAIR      72  37  28 S20G32    29.95R
TRINIDAD       RAIN      58  47  66 S23G33    30.03R
$$

COZ042>045-048>051-090-091-230300-
...NORTHEAST COLORADO...

CITY           SKY/WX    TMP DP  RH WIND       PRES   REMARKS
GREELEY ARPT   MOCLDY    64  54  69 N12       29.89R
AKRON          FAIR      70  52  52 SE17      29.86S
BURLINGTON     FAIR      72  52  49 S15       29.94R
WRAY           FAIR      73  50  43 S17G24    29.87R
YUMA           FAIR      70  18  13 SE17      29.86S
STERLING       FAIR      72  52  49 SE15      29.83S
HOLYOKE        FAIR      73  54  49 SE13      29.88R
FORT MORGAN    MOCLDY    72  45  37 SE10G16   29.86R
$$

COZ086-089-092>099-230300-
...SOUTHEAST COLORADO...

CITY           SKY/WX    TMP DP  RH WIND       PRES   REMARKS
PUEBLO         FAIR      74  47  38 E22G28    29.84R
LA JUNTA       FAIR      78  51  38 S17G25    29.87R
LAMAR          FAIR      77  51  40 S15G28    29.87R
SPRINGFIELD      N/A     72  51  47 S14       29.96R
$$




USA.gov is the U.S. government's official web portal to all federal, state and local government web resources and services.